[[{"header":{"parameterUnit":"m.s-1","parameterCategory":1,"la1":30.2991,"la2":30.254,"lo1":-89.0895,"lo2":-89.0444,"dy":0.0017,"dx":0.0017,"nx":28,"ny":28,"refTime":"2024-08-07T03:00:00:Z","depth":0,"parameterNumber":2,"parameterNumberName":"U-component_of_WINDS"},"data":[0,0,0,0,0,0,0,0,0,0,0,0,0,0,0,0,0,0,0,0,0,0,0,0,0,0,0,0,0,0,0,0,0,0,0,0,0,0,0,0,0,0,0,0,0,0,0,0,0,0,0,0,0,0,0,0,0,0,5.4351,5.4351,0,5.4403,5.4404,5.4404,5.44,5.44,5.4399,5.4398,5.4448,5.445,5.4452,0,0,0,0,0,0,0,0,0,0,0,0,0,5.4244,5.4246,5.4351,5.4351,5.4352,5.4403,5.4404,5.4405,5.4401,5.44,5.4399,5.4398,5.4448,5.445,5.4452,0,0,0,0,0,0,0,0,0,0,0,0,0,5.4293,5.4247,5.4351,5.4356,5.4357,5.4403,5.4404,5.4405,5.4401,5.44,5.4398,5.4397,5.4447,5.445,5.4453,5.4495,0,0,5.4462,5.4464,0,0,0,0,0,0,0,0,5.429,5.4297,5.4355,5.4356,5.4357,5.4394,5.4385,5.4435,5.4401,5.4384,5.4398,5.4397,5.4431,5.4435,5.4448,5.4498,5.45,5.4463,5.4464,5.4466,5.4467,0,0,0,0,0,0,0,5.4287,5.4294,5.4371,5.4356,5.4357,5.4355,5.4361,5.4394,5.4413,5.4386,5.4385,5.4392,5.4431,5.4445,5.4449,5.45,5.4462,5.4465,5.4467,5.4468,5.4589,5.459,0,0,0,0,0,0,5.4282,5.4292,5.437,5.4373,5.432,5.4358,5.4364,5.4383,5.4413,5.4416,5.4393,5.4391,5.444,5.4445,5.445,5.4503,5.4466,5.4469,5.447,5.4588,5.4589,5.4591,0,0,0,0,0,0,5.428,5.429,5.4368,5.4332,5.4342,5.4361,5.4383,5.4385,5.4398,5.4419,5.4422,5.4403,5.4439,5.4446,5.4485,5.4505,5.447,5.4473,5.4586,5.4588,5.459,5.4608,0,0,0,0,0,0,5.4277,5.4289,5.4306,5.4333,5.4344,5.4402,5.4384,5.4387,5.4404,5.4403,5.4429,5.4432,5.4439,5.448,5.4488,5.4508,5.4475,5.4584,5.4587,5.4589,5.4605,5.461,5.4614,0,0,0,0,0,5.4273,5.4308,5.4307,5.4316,5.4366,5.4403,5.4409,5.4417,5.4406,5.4423,5.4436,5.4431,5.4501,5.4484,5.4493,5.4514,5.4583,5.4586,5.4589,5.4604,5.4609,5.4614,0,0,0,0,0,0,5.4281,5.4311,5.431,5.4355,5.4377,5.4402,5.4424,5.4423,5.4448,5.4445,5.4453,5.4459,5.4498,5.451,5.449,5.4557,5.454,5.4545,5.4548,5.4554,5.4558,5.4555,5.4478,0,0,0,0,0,5.4288,5.4316,5.4341,5.4377,5.4389,5.4404,5.4421,5.4425,5.4448,5.4457,5.4472,5.4493,5.452,5.4538,5.4563,5.4607,5.4613,5.4626,5.4631,5.4634,5.4638,5.4663,5.467,5.4601,5.4601,5.4601,0,0,5.4302,5.4322,5.4339,5.438,5.4397,5.4426,5.4412,5.4443,5.4464,5.4461,5.4499,5.4511,5.4535,5.4577,5.4596,5.4588,5.4659,5.4638,5.4641,5.4643,5.4667,5.4674,5.4679,5.4603,5.4602,5.4602,0,0,5.4343,5.4361,5.4394,5.4412,5.4439,5.445,5.4458,5.4484,5.4493,5.4531,5.453,5.4555,5.46,5.4618,5.4633,5.4682,5.4679,5.469,5.4713,5.4737,5.4742,5.4747,5.4765,5.4771,5.4694,5.4694,5.4694,0,5.4357,5.4401,5.4411,5.4443,5.446,5.446,5.4493,5.451,5.4544,5.4556,5.4546,5.4605,5.4621,5.4667,5.4679,5.4691,5.47,5.4687,5.4741,5.4746,5.475,5.4768,5.4775,5.4695,5.4695,5.4695,5.4695,0,5.4417,5.4448,5.4472,5.4506,5.4526,5.4559,5.4572,5.4591,5.4594,5.4605,5.4645,5.4664,5.4695,5.4706,5.4708,5.4753,5.4747,5.4739,5.4722,5.4758,5.4775,5.4781,5.4697,5.4696,5.4696,5.4696,0,0,5.4464,5.4504,5.4513,5.4529,5.4559,5.4583,5.4615,5.4646,5.4663,5.4686,5.4713,5.4753,5.4746,5.4763,5.4767,5.4789,5.4827,5.4778,5.4779,5.4787,5.4878,5.4884,5.4892,5.4825,5.4827,5.4828,5.4876,0,5.4509,5.4568,5.4577,5.4628,5.4657,5.4658,5.4686,5.4707,5.4719,5.4744,5.4756,5.4784,5.4773,5.4784,5.4805,5.4818,5.4846,5.4815,5.485,5.4852,5.4845,5.49,5.4907,5.4952,5.4883,5.4884,5.4885,0,5.4569,5.4596,5.465,5.4678,5.469,5.4716,5.4745,5.477,5.4794,5.4801,5.482,5.4823,5.4856,5.4837,5.4883,5.4862,5.4877,5.4886,5.4887,5.4891,5.4871,5.4906,5.4966,5.4974,5.4895,5.4894,5.4893,0,5.4599,5.4648,5.4687,5.4701,5.4734,5.4752,5.4766,5.4789,5.4808,5.4833,5.4845,5.4873,5.4889,5.4911,5.492,5.4906,5.4966,5.4948,5.4972,5.4972,5.4985,5.4984,5.5049,5.4994,5.4994,5.4994,5.4993,0,5.4648,5.4681,5.4701,5.4726,5.4763,5.4774,5.481,5.4824,5.4845,5.4871,5.4872,5.4897,5.4908,5.4934,5.4942,5.4979,5.4986,5.4992,5.4994,5.4992,5.4992,5.5003,5.5,5.4995,5.4995,5.4995,5.4994,0,5.4688,5.4702,5.4746,5.4774,5.4782,5.4808,5.4832,5.4855,5.4867,5.49,5.4909,5.4926,5.4957,5.4969,5.5006,5.5012,5.5055,5.5053,5.5047,5.5048,5.5072,5.507,5.5146,5.5157,5.5094,5.5095,5.5095,0,5.4719,5.4745,5.4776,5.4795,5.481,5.484,5.4859,5.487,5.489,5.492,5.494,5.4971,5.4997,5.5046,5.5062,5.509,5.509,5.5115,5.5094,5.5093,5.5092,5.509,5.5093,5.5119,5.512,5.512,5.5121,0,5.4772,5.4778,5.4807,5.4838,5.4861,5.4886,5.491,5.4925,5.4939,5.4961,5.4994,5.5014,5.5053,5.5084,5.5114,5.5127,5.5127,5.5127,5.5134,5.5134,5.5129,5.5133,5.5058,5.5125,5.5125,5.5125,5.5124,5.5124,5.4809,5.4833,5.4859,5.4891,5.491,5.4933,5.4957,5.4972,5.4999,5.5033,5.5037,5.5072,5.5096,5.5137,5.5152,5.5179,5.5172,5.5182,5.5185,5.5188,5.519,5.5125,5.5184,5.5184,5.5184,5.5184,5.5184,0,5.4863,5.4881,5.491,5.4944,5.4969,5.4967,5.4994,5.5015,5.5046,5.5069,5.5094,5.5132,5.5162,5.5181,5.5211,5.5229,5.523,5.5237,5.5236,5.524,5.5194,5.5185,5.5236,5.5236,5.5236,5.5236,5.5236,5.5236,5.4895,5.4935,5.4945,5.4995,5.5011,5.5047,5.5062,5.5083,5.5101,5.5144,5.517,5.5182,5.5203,5.5235,5.5263,5.5268,5.5279,5.5287,5.5291,5.5248,5.5243,5.5237,5.5229,5.5289,5.5289,5.5335,5.5335,5.5335]},{"header":{"parameterUnit":"m.s-1","parameterCategory":1,"la1":30.2991,"la2":30.254,"lo1":-89.0895,"lo2":-89.0444,"dy":0.0017,"dx":0.0017,"nx":28,"ny":28,"refTime":"2024-08-07T03:00:00:Z","depth":0,"parameterNumber":3,"parameterNumberName":"V-component_of_WINDS"},"data":[0,0,0,0,0,0,0,0,0,0,0,0,0,0,0,0,0,0,0,0,0,0,0,0,0,0,0,0,0,0,0,0,0,0,0,0,0,0,0,0,0,0,0,0,0,0,0,0,0,0,0,0,0,0,0,0,0,0,-1.7364,-1.7362,0,-1.7224,-1.7222,-1.7221,-1.7155,-1.7155,-1.7156,-1.7156,-1.7006,-1.7002,-1.6998,0,0,0,0,0,0,0,0,0,0,0,0,0,-1.757,-1.7566,-1.7364,-1.7362,-1.736,-1.7224,-1.7222,-1.722,-1.7155,-1.7156,-1.7156,-1.7156,-1.7008,-1.7003,-1.6998,0,0,0,0,0,0,0,0,0,0,0,0,0,-1.746,-1.7565,-1.7364,-1.7312,-1.7306,-1.7224,-1.7222,-1.722,-1.7155,-1.7156,-1.7156,-1.7156,-1.7009,-1.7003,-1.6997,-1.6956,0,0,-1.6979,-1.6976,0,0,0,0,0,0,0,0,-1.7466,-1.7452,-1.7321,-1.7315,-1.7308,-1.7207,-1.724,-1.7131,-1.7155,-1.7212,-1.7156,-1.7156,-1.7073,-1.7061,-1.7035,-1.6949,-1.6943,-1.6978,-1.6974,-1.6972,-1.697,0,0,0,0,0,0,0,-1.7474,-1.7458,-1.7308,-1.7319,-1.7311,-1.7293,-1.7278,-1.7219,-1.7143,-1.7207,-1.7202,-1.7187,-1.7069,-1.7041,-1.7031,-1.694,-1.6978,-1.6973,-1.6969,-1.6967,-1.6813,-1.6813,0,0,0,0,0,0,-1.7491,-1.7465,-1.7313,-1.7304,-1.7389,-1.729,-1.7272,-1.7239,-1.7143,-1.7129,-1.7187,-1.7184,-1.7051,-1.7038,-1.7025,-1.697,-1.6972,-1.6966,-1.6963,-1.6814,-1.6813,-1.6813,0,0,0,0,0,0,-1.7495,-1.7478,-1.7318,-1.7383,-1.7361,-1.7286,-1.7249,-1.7237,-1.7208,-1.7128,-1.7114,-1.7172,-1.7051,-1.7034,-1.6974,-1.6964,-1.6963,-1.6958,-1.6814,-1.6813,-1.6813,-1.686,0,0,0,0,0,0,-1.7502,-1.748,-1.7465,-1.7383,-1.7358,-1.7271,-1.7249,-1.7234,-1.7198,-1.7194,-1.711,-1.7097,-1.7049,-1.6983,-1.6968,-1.6955,-1.6953,-1.6815,-1.6814,-1.6813,-1.6859,-1.6861,-1.6863,0,0,0,0,0,-1.7509,-1.7482,-1.7464,-1.7446,-1.7338,-1.7271,-1.7256,-1.7204,-1.7198,-1.7181,-1.713,-1.7099,-1.6968,-1.6978,-1.696,-1.6945,-1.6815,-1.6814,-1.6813,-1.6858,-1.686,-1.6863,0,0,0,0,0,0,-1.7562,-1.747,-1.745,-1.7396,-1.7342,-1.726,-1.7237,-1.7209,-1.7154,-1.7152,-1.7088,-1.7069,-1.7015,-1.6974,-1.6987,-1.69,-1.6888,-1.6884,-1.6929,-1.6931,-1.6932,-1.6943,-1.6948,0,0,0,0,0,-1.7568,-1.7523,-1.7445,-1.7405,-1.7379,-1.7313,-1.7282,-1.7247,-1.7187,-1.7164,-1.7108,-1.705,-1.6995,-1.6961,-1.6906,-1.6853,-1.6833,-1.6834,-1.6836,-1.6838,-1.6834,-1.6803,-1.6802,-1.681,-1.681,-1.681,0,0,-1.7579,-1.7523,-1.7498,-1.7414,-1.7368,-1.7321,-1.7294,-1.7246,-1.721,-1.7155,-1.7096,-1.7054,-1.6984,-1.6928,-1.69,-1.6892,-1.6828,-1.6837,-1.6839,-1.6834,-1.6802,-1.6801,-1.68,-1.6809,-1.6809,-1.6809,0,0,-1.7574,-1.7528,-1.749,-1.7445,-1.7377,-1.7333,-1.7324,-1.7247,-1.7217,-1.7157,-1.7115,-1.7071,-1.6978,-1.6931,-1.6895,-1.6874,-1.6843,-1.6858,-1.6867,-1.6837,-1.6837,-1.6836,-1.6828,-1.6826,-1.6855,-1.6855,-1.6855,0,-1.7595,-1.7526,-1.7473,-1.7428,-1.7391,-1.7342,-1.7302,-1.726,-1.7177,-1.7152,-1.7145,-1.7029,-1.6979,-1.691,-1.6905,-1.6878,-1.6864,-1.6866,-1.6841,-1.684,-1.6838,-1.683,-1.6827,-1.6857,-1.6857,-1.6856,-1.6856,0,-1.7555,-1.7507,-1.7484,-1.7407,-1.7368,-1.7325,-1.7265,-1.7231,-1.72,-1.7157,-1.7096,-1.7035,-1.6967,-1.6948,-1.6916,-1.6875,-1.6872,-1.6854,-1.6841,-1.6841,-1.6831,-1.6828,-1.686,-1.6859,-1.6858,-1.6858,0,0,-1.7579,-1.7475,-1.7467,-1.7432,-1.7353,-1.7314,-1.7269,-1.7205,-1.7177,-1.7121,-1.708,-1.7004,-1.6987,-1.6946,-1.6908,-1.6882,-1.6869,-1.6867,-1.6864,-1.6869,-1.6819,-1.6833,-1.683,-1.6849,-1.6848,-1.6847,-1.6825,0,-1.7563,-1.7482,-1.7434,-1.7371,-1.7326,-1.7279,-1.7239,-1.7186,-1.7145,-1.7098,-1.7052,-1.6999,-1.6981,-1.6956,-1.6928,-1.6877,-1.6858,-1.6877,-1.6809,-1.6807,-1.6827,-1.6825,-1.6839,-1.6821,-1.6821,-1.682,-1.682,0,-1.7534,-1.7482,-1.7415,-1.7342,-1.7321,-1.7287,-1.7224,-1.7181,-1.7119,-1.7091,-1.7046,-1.7009,-1.6957,-1.695,-1.6877,-1.6892,-1.6861,-1.6832,-1.6829,-1.682,-1.6813,-1.6815,-1.6814,-1.6811,-1.6814,-1.6814,-1.6815,0,-1.7558,-1.747,-1.7419,-1.739,-1.7304,-1.7281,-1.7243,-1.7182,-1.7147,-1.7091,-1.7067,-1.7006,-1.6973,-1.6925,-1.6872,-1.6871,-1.6805,-1.6792,-1.6778,-1.678,-1.6765,-1.6767,-1.6758,-1.6747,-1.6747,-1.6747,-1.6747,0,-1.7545,-1.7506,-1.7429,-1.7398,-1.7352,-1.7297,-1.7253,-1.7211,-1.7157,-1.7116,-1.7071,-1.7033,-1.6965,-1.6917,-1.6875,-1.6821,-1.6806,-1.6781,-1.677,-1.6784,-1.6788,-1.6762,-1.6762,-1.6746,-1.6747,-1.6747,-1.6747,0,-1.7563,-1.751,-1.7452,-1.7375,-1.7355,-1.7325,-1.7259,-1.7226,-1.7183,-1.7131,-1.7115,-1.7047,-1.6989,-1.6931,-1.6853,-1.6824,-1.6771,-1.6757,-1.6793,-1.6786,-1.6775,-1.6777,-1.675,-1.6743,-1.6738,-1.6738,-1.6738,0,-1.7558,-1.7527,-1.7449,-1.7419,-1.7383,-1.7335,-1.7299,-1.7243,-1.7208,-1.7135,-1.7111,-1.705,-1.6999,-1.6908,-1.685,-1.679,-1.6773,-1.6768,-1.6763,-1.6779,-1.6772,-1.6774,-1.677,-1.6769,-1.677,-1.677,-1.677,0,-1.7554,-1.753,-1.7481,-1.7424,-1.7383,-1.7334,-1.7283,-1.7261,-1.7195,-1.7157,-1.7098,-1.7059,-1.698,-1.692,-1.6853,-1.6812,-1.6779,-1.6772,-1.6766,-1.678,-1.6802,-1.6789,-1.6797,-1.6773,-1.6772,-1.6772,-1.6772,-1.6772,-1.756,-1.7531,-1.7471,-1.7418,-1.7375,-1.7329,-1.7294,-1.7248,-1.7199,-1.7132,-1.7101,-1.7042,-1.698,-1.6888,-1.6848,-1.68,-1.6791,-1.6782,-1.6779,-1.6777,-1.6781,-1.6811,-1.6787,-1.6787,-1.6787,-1.6787,-1.6787,0,-1.7554,-1.7514,-1.7466,-1.7398,-1.7356,-1.7332,-1.7274,-1.724,-1.719,-1.7136,-1.7087,-1.702,-1.6961,-1.69,-1.6837,-1.6811,-1.6794,-1.6796,-1.6797,-1.6788,-1.6792,-1.6804,-1.6811,-1.6811,-1.6811,-1.6811,-1.6811,-1.6811,-1.7546,-1.7495,-1.7463,-1.739,-1.7349,-1.7293,-1.7262,-1.7219,-1.7176,-1.7104,-1.7056,-1.7017,-1.6959,-1.6893,-1.6838,-1.6821,-1.68,-1.6806,-1.6785,-1.6789,-1.6788,-1.6786,-1.6797,-1.6802,-1.6802,-1.6784,-1.6784,-1.6784]}]]